Location: *
(45.1961°N, 1.9694°E)
Time: 16:43:07
(UTC+00:00)

Cosmos 1125 Rocket - Pass Details

Date: 25 August 2019
Orbit: 757 x 781 km, 74.0° (Epoch: 17 September)

Event Time Altitude Azimuth Distance (km) Brightness Sun altitude
Exits shadow 21:39:17 77° 58° (ENE) 791 3.4 -26.4°
Drops below altitude 10° 21:44:14 10° 23° (NNE) 2,321 6.3 -27.0°
Sets 21:46:38 0° 23° (NNE) 3,256 7.2 -27.2°
